Regional Weather Roundup
Issued by NWS

Home | Current Version | Previous Version | Text Only | Print | Product List | Glossary On
Versions: 1 2 3 4 5 6 7 8 9 10 11 12 13 14 15 16 17 18 19 20 21 22 23 24 25 26 27 28 29 30 31 32 33 34 35 36 37 38 39 40 41 42 43 44 45 46 47 48 49 50
000
ASUS43 KIND 211809
RWRIN

WEATHER ROUNDUP FOR INDIANA
NATIONAL WEATHER SERVICE INDIANAPOLIS IN
200 PM EDT SUN SEP 21 2014

NOTE: "FAIR" INDICATES FEW OR NO CLOUDS BELOW 12,000 FEET WITH NO
SIGNIFICANT WEATHER AND/OR OBSTRUCTIONS TO VISIBILITY.

* - STATION DOES NOT REPORT WEATHER SUCH AS PRECIPITATION OR FOG.

+ - STATION NOT QUALITY CONTROLLED BY THE NATIONAL WEATHER SERVICE.
    USE DATA WITH CAUTION...ESPECIALLY DEWPOINT AND RELATIVE
    HUMIDITY OBSERVATIONS.

INZ001>003-010>013-019-020-211900-
NORTHWEST INDIANA

CITY           SKY/WX    TMP DP  RH WIND       PRES   REMARKS
GARY /AIRPORT/ PTSUNNY   64  50  59 W12G23    29.92R
KNOX *+        CLOUDY    61  49  66 NW14G22   29.90R
LA PORTE +     CLOUDY    61  51  69 NW16G25   29.90R
6HR MIN TEMP:  57; 6HR MAX TEMP:  61;

MICHIGAN CITY+ CLOUDY    61  50  67 NW16G26   29.91R
MONTICELLO +   MOSUNNY   65  52  61 NW22G28   29.91S
RENSSELAER +   CLOUDY    63  52  67 W12G22    29.93R
VALPARAISO     CLOUDY    63  50  62 NW14G21   29.91R
6HR MIN TEMP:  57; 6HR MAX TEMP:  64;


$$

LMZ046-743>745-211900-
SOUTHERN LAKE MICHIGAN

STATION/POSITION TIME  TEMP WIND        PRES
                       AIR  DIR/SP/G
                 (UTC) (F)  (DEG/KT/KT) (MB)
MICHIGAN CITY    1800   60  270/ 24/ 28   N/A

$$

INZ004-005-014>016-021>024-211900-
NORTH CENTRAL INDIANA

CITY           SKY/WX    TMP DP  RH WIND       PRES   REMARKS
GOSHEN         LGT RAIN N/A N/A N/A W16       29.84R
                                      6HR PCP:  0.02;

LOGANSPORT +   MOSUNNY   64  50  59 NW14G22   29.90S
PERU/GRISSOM   PTSUNNY   67  53  62 NW23G32   29.88R
6HR MIN TEMP:  60; 6HR MAX TEMP:  67; 6HR PCP:  0.10;

ROCHESTER +    PTSUNNY   64  50  59 W17G24    29.89R
SOUTH BEND     CLOUDY    62  52  69 NW20G32   29.86S
6HR MIN TEMP:  59; 6HR MAX TEMP:  63; 6HR PCP: TRACE;

WARSAW +       CLOUDY    61  50  67 NW21G30   29.86R

$$

INZ006>009-017-018-025>027-211900-
NORTHEAST INDIANA

CITY           SKY/WX    TMP DP  RH WIND       PRES   REMARKS
ANGOLA *+      PTSUNNY   61  50  67 W9        29.79S
AUBURN +       MOSUNNY   63  48  59 W15G29    29.83S
FORT WAYNE     PTSUNNY   62  51  67 W13       29.85R
6HR MIN TEMP:  62; 6HR MAX TEMP:  67;

HUNTINGTON +   CLOUDY    62  50  65 NW12G22   29.86R
6HR MIN TEMP:  62; 6HR MAX TEMP:  66;


$$

INZ028-029-035-036-043>045-051>053-211900-
WEST CENTRAL INDIANA

CITY           SKY/WX    TMP DP  RH WIND       PRES   REMARKS
GREENCASTLE +  MOSUNNY   70  50  49 W8G22     29.92S
LAFAYETTE      PTSUNNY   66  52  60 NW20G30   29.92R
6HR MIN TEMP:  58; 6HR MAX TEMP:  68;

TERRE HAUTE    MOSUNNY   74  48  39 NW22G30   29.94S
6HR MIN TEMP:  64; 6HR MAX TEMP:  75;


$$

INZ030>032-037>040-046>048-054>057-064-065-211900-
CENTRAL INDIANA

CITY           SKY/WX    TMP DP  RH WIND       PRES   REMARKS
CP ATTERBURY + SUNNY     73  50  43 W10G18    29.90F
COLUMBUS       MOSUNNY   73  46  38 MISG      29.90F
FRANKFORT +    MOSUNNY   68  50  51 W18G28    29.92R
INDIANAPOLIS   MOSUNNY   73  49  42 W23G32    29.89S
6HR MIN TEMP:  64; 6HR MAX TEMP:  73;

-EAGLE CREEK   MOSUNNY   70  48  45 NW23G30   29.89R
6HR MIN TEMP:  65; 6HR MAX TEMP:  72;

KOKOMO *+      CLOUDY    64  48  55 NW22G28   29.89R
MARION +       PTSUNNY   68  47  46 NW23G31   29.88R
MT COMFORT *+  MOSUNNY   72  34  25 NW23G33   29.89R
SHELBYVILLE    SUNNY     76  48  37 W20G29    29.88F
6HR MIN TEMP:  69; 6HR MAX TEMP:  76;

ZIONSVILLE +   MOSUNNY   71  47  42 W22G29    29.90S
6HR MIN TEMP:  63; 6HR MAX TEMP:  71;


$$

INZ033-034-041-042-049-050-058-059-211900-
EAST CENTRAL INDIANA

CITY           SKY/WX    TMP DP  RH WIND       PRES   REMARKS
MUNCIE         PTSUNNY   70  48  45 W23G35    29.86R
6HR MIN TEMP:  64; 6HR MAX TEMP:  71;


$$

INZ060-061-067>069-081>083-085>088-211900-
SOUTHWEST INDIANA

CITY           SKY/WX    TMP DP  RH WIND       PRES   REMARKS
EVANSVILLE     SUNNY     77  49  37 NW13G20   29.97F
6HR MIN TEMP:  69; 6HR MAX TEMP:  77;

WASHINGTON +   SUNNY     77  51  39 NW13G20   29.94F
6HR MIN TEMP:  69; 6HR MAX TEMP:  77;


$$

INZ062-063-066-070>080-084-089>092-211900-
SOUTH CENTRAL AND SOUTHEAST INDIANA

CITY           SKY/WX    TMP DP  RH WIND       PRES   REMARKS
BLOOMINGTON    SUNNY     73  48  41 NW10G21   29.93F
6HR MIN TEMP:  68; 6HR MAX TEMP:  74;


$$



USA.gov is the U.S. government's official web portal to all federal, state and local government web resources and services.